Location: Freiburg+im+Breisgau
(48.0359°N, 7.8195°E)
Time: 05:01:10
(UTC+01:00)

ISS - Pass Details

Date: 15 November 2017
Orbit: 401 x 407 km, 51.6° (Epoch: 25 November)

Event Time Altitude Azimuth Distance (km) Brightness Sun altitude
Exits shadow 04:55:40 23° 103° (ESE) 908 -1.4 -26.5°
Drops below altitude 10° 04:57:02 10° 106° (ESE) 1,452 -0.1 -26.3°
Sets 04:59:07 0° 109° (ESE) 2,310 1.1 -26.0°
